sat.trackr.live / text

‹ back to catalog

STARLINK-34817

NORAD 65362 · 2025-190M

PAYLOAD ACTIVE UNKNOWN

§ Identity

Operator
Country
US
Launch date
2025-08-28
Launch site
AFETR
Launch vehicle
Mass (kg)
RCS (m²)

Purposes: comms

External: N2YO · Heavens-Above · Gunter

§ Orbital elements

Epoch: 2026-05-25T01:28:21.313920Z

Period
93.85 min
Inclination
53.1596°
Eccentricity
0.0001441
Mean motion
15.34410582 rev/d
Perigee alt
461.7 km
Apogee alt
463.7 km
Semi-major
6,840.8 km
B*
5.9313e-4
RAAN
173.0422°
Arg perigee
85.4070°
Mean anomaly
274.7097°
Rev number
4,145

§ Raw data

STARLINK-348171 65362U 25190M   26145.06135780  .00019723  00000+0  59313-3 0  99922 65362  53.1596 173.0422 0001441  85.4070 274.7097 15.34410582 41459

JSON: /api/v1/satellites/65362 · /tle

For live sub-satellite position, see the globe view (requires WebGL).

§ Visibility from observer

Set your observer location to see the next 7 days of passes ≥ 10°. The values pass through the URL so the page stays shareable.

No JS? Fill the form by hand. The geolocation button needs JavaScript.